Regional Weather Roundup
Issued by NWS Mobile, AL

Home | Current Version | Previous Version | Text Only | Print | Product List | Glossary On
Versions: 1 2 3 4 5 6 7 8 9 10 11 12 13 14 15 16 17 18 19 20 21 22 23 24 25 26 27 28 29 30 31 32 33 34 35 36 37 38 39 40 41 42 43 44 45 46 47 48 49 50
000
ASUS44 KMOB 182310
RWRMOB
REGIONAL WEATHER ROUNDUP
NATIONAL WEATHER SERVICE MOBILE AL
600 PM CDT THU SEP 18 2014

NOTE: "FAIR" INDICATES FEW OR NO CLOUDS BELOW 12,000 FEET WITH NO
      SIGNIFICANT WEATHER AND/OR OBSTRUCTIONS TO VISIBILITY.

  * THESE STATIONS ARE PART OF THE UNIVERSITY OF SOUTH ALABAMA
    MESONET AND ARE NOT UNDER NWS OR FAA QUALITY CONTROL.

ALZ061>064-190000-
COASTAL ALABAMA

CITY           SKY/WX    TMP DP  RH WIND       PRES   REMARKS
MOBILE REG APT CLOUDY    70  69  97 NW3       29.93R FOG
BROOKLEY FIELD LGT RAIN  75  68  78 NW7       29.92R
USA CAMPUS*      N/A     70  70 100 CALM      29.92R
DOG RIVER*     NOT AVBL


CITY           SKY/WX    TMP DP  RH WIND       PRES   REMARKS
MOUNT VERNON*    N/A     73  66  78 CALM      29.90F
SARALAND*      NOT AVBL
BAY MINETTE*   NOT AVBL
LOXLEY*          N/A    N/A N/A N/A CALM      29.91R
ROBERTSDALE*     N/A    N/A N/A N/A VRB3      29.91R
FAIRHOPE*        N/A     73  68  83 CALM      29.90R
ELBERTA*         N/A     77  64  65 N2        29.90R
FOLEY*         NOT AVBL
GRAND BAY*       N/A     75  66  73 N3        29.88R
DAUPHIN ISLND* NOT AVBL
BON SCOUR NWR* NOT AVBL
GULF SHORES    CLOUDY    81  71  73 N5        29.89R

$$

ALZ051>060-190000-
INTERIOR SOUTHWEST AND SOUTH CENTRAL ALABAMA

CITY           SKY/WX    TMP DP  RH WIND       PRES   REMARKS
GREENVILLE     MOCLDY    79  68  69 CALM      29.92R
EVERGREEN      MOCLDY    83  69  62 CALM      29.91S
CASTLEBERRY*   NOT AVBL
ATMORE*          N/A     79  70  73 SW8       29.92R
DIXIE*         NOT AVBL
ANDALUSIA/OPP  PTCLDY    88  59  37 E3        29.91R
ANDALUSIA*     NOT AVBL
FLORALA APT    PTCLDY    84  68  58 CALM      29.92R
FLORALA*         N/A     84  64  51 CALM      29.87R

$$

FLZ001>006-190000-
WESTERN FLORIDA PANHANDLE

CITY           SKY/WX    TMP DP  RH WIND       PRES   REMARKS
PENSACOLA      CLOUDY    79  74  84 NW5       29.89R
NAS PENSACOLA  CLOUDY    82  74  76 CALM      29.89R
MILTON         MOCLDY    81  73  76 CALM      29.90R
WHTNG S FIELD  MOCLDY    82  75  79 CALM      29.90R


CITY           SKY/WX    TMP DP  RH WIND       PRES   REMARKS
WALNUT HILL*   NOT AVBL
JAY*           NOT AVBL
DUKE FIELD     MOCLDY    83  79  87 S8        29.90R HX  95
CRESTVIEW      MOCLDY    86  70  58 CALM      29.91R
VALPARAISO     MOCLDY    83  74  73 NE3       29.89R
DESTIN         CLOUDY    86  73  65 VRB3      29.89R

$$

MSZ076-079-190000-
INTERIOR SOUTHEAST MISSISSIPPI

CITY           SKY/WX    TMP DP  RH WIND       PRES   REMARKS
LEAKESVILLE*   NOT AVBL
AGRICOLA*      NOT AVBL

$$

MARINE OBSERVATIONS

STATION/POSITION TIME  TEMP    WIND        PRES    WAVE
                       AIR SEA DIR/SP/G            HT/PER
                 (UTC) (F)     (DEG/KT/KT) (MB)    (FT/S)
PASCAGOULA       2300   84     120/  3/  4 1012.1R
PETIT BOIS ISLND 2300   83     110/  4/  5 1012.5R
GRAND BAY        2200   83     150/  6     1013.0S
KATRINA CUT      2200   83     130/  5     1012.5S
CEDAR POINT      2200   83      80/  6     1012.2R
E DAUPHIN ISLAND 2200   84     110/  4/  5 1011.8F
MIDDLE BAY LIGHT 2200   80      20/  9     1011.9R
STATE DOCKS      2300   74 87              1012.7R
MEAHER PARK      2200   75      10/  3     1012.2S
WEEKS BAY        2200   80                   N/A
12 S ORANGE BCH  2300   83 86  170/  4/  4 1012.2R   1
PENSACOLA BAY    2300   85 86  220/  1/  2 1012.5R
64 S DAUPHIN ISL 2201   83 86  160/  8/ 10 1012.1    1
67 S FORT MORGAN 2200   82     VRB  6        N/A

$$

SELECTED LOCATIONS ACROSS THE REGION

CITY           SKY/WX    TMP DP  RH WIND       PRES   REMARKS
NEW ORLEANS    CLOUDY    81  68  64 S15G24    29.87R
GULFPORT       CLOUDY    84  73  69 SE8       29.88R
PASCAGOULA AP  CLOUDY    81  74  79 NE10      29.89R HAZE
PASCAGOULA*      N/A     82  72  69 CALM      29.89R
HATTIESBURG    LGT RAIN  74  68  81 CALM      29.90S
LAUREL         PTSUNNY  N/A N/A N/A SE12G18   29.91R
MERIDIAN       PTSUNNY   79  73  82 CALM      29.90S
JACKSON        CLOUDY    82  73  74 SW8       29.89R THUNDER
MONTGOMERY     MOCLDY    85  59  41 CALM      29.91S
TROY           PTCLDY    80  66  62 CALM      29.93R
KINSTON*       NOT AVBL
GENEVA*          N/A     84  59  42 CALM      29.91R
ASHFORD*       NOT AVBL
DOTHAN         PTCLDY    83  64  52 CALM      29.94S
PANAMA CITY    MOCLDY    81  70  69 CALM      29.88R

$$




USA.gov is the U.S. government's official web portal to all federal, state and local government web resources and services.